Overview Statistics Trail Chart Weather Telemetry Raw packets
 

This is the latest recevied weather packets stored in our database for station/object OK1VOF-13. If no packets are shown the sender has not sent any weather packets the latest 10 day(s).

<< 51 52 53 54 55 56 57 >>
Time Temp. Humidity Pressure Rain* Wind** Luminosity Snow
1787913757 26.67° C 42% 1015.7 hPa 0 mm - - -
1787913459 26.67° C 42% 1015.9 hPa 0 mm - - -
1787913162 26.67° C 43% 1016 hPa 0 mm - - -
1787912861 26.67° C 43% 1016.1 hPa 0 mm - - -
1787912263 26.11° C 43% 1016.2 hPa 0 mm - - -
1787911666 26.11° C 44% 1016.4 hPa 0 mm - - -
1787910769 25.56° C 44% 1016.6 hPa 0 mm - - -
1787910165 25.56° C 45% 1016.7 hPa 0 mm - - -
1787909269 25° C 45% 1016.9 hPa 0 mm - - -
1787907781 24.44° C 47% 1017.2 hPa 0 mm - - -
1787907482 24.44° C 47% 1017.3 hPa 0 mm - - -
1787906586 23.89° C 48% 1017.1 hPa 0 mm - - -
1787905690 23.89° C 50% 1017.5 hPa 0 mm - - -
1787905092 23.33° C 51% 1017.7 hPa 0 mm - - -
1787903897 22.22° C 53% 1018 hPa 0 mm - - -
1787902092 21.67° C 54% 1018.1 hPa 175.01 mm - - -
1787901494 21.67° C 55% 1018.3 hPa 175.01 mm - - -
1787900884 21.67° C 56% 1018.4 hPa 104.65 mm - - -
1787900286 21.11° C 56% 1018.1 hPa 108.2 mm - - -
1787899978 21.11° C 56% 1018.1 hPa 108.2 mm - - -
1787899682 21.11° C 56% 1017.9 hPa 108.2 mm - - -
1787899078 21.11° C 57% 1017.9 hPa 108.2 mm - - -
1787897650 20.56° C 58% 1017.9 hPa 90.68 mm - - -
1787897283 20.56° C 58% 1017.8 hPa 75.44 mm - - -
1787896785 20° C 59% 1018 hPa 35.81 mm - - -

* Rain latest hour (hover to see other rain measurements)
** Current wind speed in m/s (hover to see current wind gust speed)